Weather History for KELP - May, 2014

Change the Weather History Date:

Sunday, May 11, 2014

  Actual Average Record
Temperature  
Mean Temperature 79 °F 72 °F  
Max Temperature 90 °F 86 °F 98 °F (1962)
Min Temperature 67 °F 59 °F 43 °F (1922)
Degree Days  
Heating Degree Days 0 0  
Month to date heating degree days 11 6  
Since 1 July heating degree days 2037 2471  
Cooling Degree Days 14 8  
Month to date cooling degree days 77 71  
Year to date cooling degree days 203 163  
Growing Degree Days 28 (Base 50)    
Moisture  
Dew Point 17 °F    
Average Humidity 11    
Maximum Humidity 16    
Minimum Humidity 6    
Precipitation  
Precipitation 0.00 in 0.01 in 1.46 in (1932)
Month to date precipitation 0.00 0.14  
Year to date precipitation 0.63 1.49  
Snow  
Snow 0.00 in - - ()
Month to date snowfall 0.0  
Since 1 July snowfall T  
Snow Depth 0.00 in    
Sea Level Pressure  
Sea Level Pressure 29.52 in    
Wind  
Wind Speed 23 mph (WSW)    
Max Wind Speed 44 mph    
Max Gust Speed 63 mph    
Visibility 9 miles    
Events      
T = Trace of Precipitation, MM = Missing Value Source: NWS Daily Summary

Daily Weather History Graph

Daily Weather History Graph

Search for Another Location

Airport or City:

Trip Planner

Search our weather history database for the weather conditions in past years. The results will help you decide how hot, cold, wet, or windy it might be!

Date:

Astronomy

May. 11, 2014 Rise Set
Actual Time 6:11 AM MDT 7:52 PM MDT
Civil Twilight 5:44 AM MDT 8:19 PM MDT
Nautical Twilight 5:12 AM MDT 8:51 PM MDT
Astronomical Twilight 4:39 AM MDT 9:25 PM MDT
Moon 5:02 PM MDT (5/11) 4:05 AM MDT (5/11)
Length of Visible Light 14h 34m
Length of Day
13h 41m
Waxing Gibbous, 89% of the Moon is Illuminated
May 11
Waxing Gibbous
May 14
Full
May 21
Last Quarter
May 28
New
Jun 5
First Quarter

Hourly Weather History & Observations

Time (MDT) Temp. Dew Point Humidity Pressure Visibility Wind Dir Wind Speed Gust Speed Precip Events Conditions
12:51 AM 77.0 °F 10.0 °F 8% 29.54 in 10.0 mi WSW 27.6 mph 34.5 mph N/A   Clear
1:51 AM 75.9 °F 9.0 °F 8% 29.53 in 10.0 mi WSW 29.9 mph 36.8 mph N/A   Clear
2:51 AM 73.4 °F 12.2 °F 10% 29.75 in 10.0 mi West 29.9 mph 36.8 mph N/A   Clear
3:51 AM 73.9 °F 15.1 °F 11% 29.52 in 10.0 mi West 27.6 mph 40.3 mph N/A   Clear
4:51 AM 70.0 °F 16.0 °F 13% 29.51 in 10.0 mi WSW 18.4 mph 31.1 mph N/A   Clear
5:51 AM 68.0 °F 17.1 °F 14% 29.52 in 10.0 mi SW 16.1 mph 24.2 mph N/A   Partly Cloudy
6:51 AM 68.0 °F 18.0 °F 15% 29.55 in 10.0 mi SW 16.1 mph - N/A   Partly Cloudy
7:51 AM 71.1 °F 16.0 °F 12% 29.56 in 10.0 mi WSW 15.0 mph - N/A   Partly Cloudy
8:51 AM 72.0 °F 16.0 °F 12% 29.58 in 10.0 mi Variable 3.5 mph - N/A   Partly Cloudy
9:51 AM 77.0 °F 14.0 °F 9% 29.57 in 10.0 mi SW 13.8 mph - N/A   Partly Cloudy
10:51 AM 80.1 °F 12.9 °F 8% 29.56 in 10.0 mi WSW 26.5 mph - N/A   Partly Cloudy
11:51 AM 82.9 °F 15.1 °F 8% 29.54 in 10.0 mi SW 25.3 mph 33.4 mph N/A   Partly Cloudy
12:51 PM 86.0 °F 15.1 °F 7% 29.50 in 10.0 mi WSW 27.6 mph 36.8 mph N/A   Clear
1:51 PM 88.0 °F 16.0 °F 7% 29.46 in 10.0 mi WSW 35.7 mph 47.2 mph N/A   Clear
2:51 PM 89.1 °F 16.0 °F 7% 29.44 in 5.0 mi WSW 29.9 mph 44.9 mph N/A   Widespread Dust
3:51 PM 89.1 °F 17.1 °F 7% 29.41 in 5.0 mi WSW 33.4 mph 52.9 mph N/A   Widespread Dust
4:51 PM 88.0 °F 17.1 °F 7% 29.43 in 5.0 mi WSW 28.8 mph 44.9 mph N/A   Widespread Dust
5:51 PM 87.1 °F 18.0 °F 8% 29.43 in 5.0 mi WSW 28.8 mph 39.1 mph N/A   Widespread Dust
6:51 PM 84.0 °F 19.9 °F 9% 29.45 in 5.0 mi WSW 29.9 mph 40.3 mph N/A   Widespread Dust
7:51 PM 82.0 °F 21.9 °F 11% 29.46 in 10.0 mi WSW 26.5 mph 36.8 mph N/A   Clear
8:51 PM 80.1 °F 24.1 °F 13% 29.50 in 10.0 mi WSW 24.2 mph 36.8 mph N/A   Clear
9:51 PM 79.0 °F 27.0 °F 15% 29.54 in 10.0 mi WSW 23.0 mph 28.8 mph N/A   Clear
10:51 PM 75.0 °F 26.1 °F 16% 29.58 in 10.0 mi WNW 21.9 mph 29.9 mph N/A   Clear
11:51 PM 70.0 °F 19.0 °F 14% 29.64 in 10.0 mi NW 10.4 mph - N/A   Clear